GW3384 Weather Reports


time (UTC)temp
F
wind
direction
speed
knots
gust
knots
rain 1hr
in
rain 24hr
in
rain mn
in
humidity
%
barometer
mb
20260502180313 71 213 1.7 2.6 0.00 0.00 0.00 49 1019.9
20260502170220 70 82 1.7 2.6 0.00 0.00 0.00 54 1020.3
20260502164155 69 67 0.9 1.7 0.00 0.00 0.00 58 1020.5
20260502163650 69 114 0.9 1.7 0.00 0.00 0.00 60 1020.3
20260502163147 68 115 2.6 3.5 0.00 0.00 0.00 67 1020.5
20260502162644 68 340 4.3 5.2 0.00 0.00 0.00 59 1020.3
20260502162141 68 218 0.9 0.9 0.00 0.00 0.00 63 1020.4
20260502161639 67 315 6.1 8.7 0.00 0.00 0.00 64 1020.3
20260502161135 67 7 3.5 3.5 0.00 0.00 0.00 69 1020.4
20260502160633 67 348 2.6 2.6 0.00 0.00 0.00 66 1020.6
20260502160132 66 251 1.7 2.6 0.00 0.00 0.00 67 1020.6
20260502152046 64 10 1.7 3.5 0.00 0.00 0.00 74 1020.5
20260502151543 64 356 3.5 6.1 0.00 0.00 0.00 72 1020.2
20260502151040 65 337 4.3 5.2 0.00 0.00 0.00 78 1020.2
20260502150538 64 357 4.3 6.1 0.00 0.00 0.00 79 1020.4
20260502130416 54 350 0.0 0.9 0.00 0.00 0.00 99 1019.1
20260502123359 52 9 0.9 0.9 0.00 0.00 0.00 99 1018.4
20260502122856 52 18 0.0 0.0 0.00 0.00 0.00 99 1018.4
20260502122352 52 341 1.7 1.7 0.00 0.00 0.00 99 1018.4
20260502121850 51 0 1.7 1.7 0.00 0.00 0.00 99 1018.3
20260502121347 51 2 0.9 0.9 0.00 0.00 0.00 99 1018.0
20260502120845 51 11 0.0 0.0 0.00 0.00 0.00 99 1018.2
20260502120341 51 16 0.9 0.9 0.00 0.00 0.00 99 1017.8
20260502115838 51 17 0.0 0.0 0.00 0.00 0.00 99 1017.9
20260502115335 51 356 0.9 0.9 0.00 0.00 0.00 99 1017.9
20260502114832 51 18 0.0 0.0 0.00 0.00 0.00 99 1017.8
20260502114329 51 12 0.0 0.9 0.00 0.00 0.00 99 1017.8
20260502113826 51 12 0.0 0.0 0.00 0.00 0.00 99 1017.8
20260502113323 51 7 0.0 0.9 0.00 0.00 0.00 99 1017.6
20260502112822 51 9 0.0 0.0 0.00 0.00 0.00 99 1017.5
20260502112318 51 15 0.0 0.0 0.00 0.00 0.00 99 1017.3
20260502111816 51 17 0.0 0.0 0.00 0.00 0.00 99 1017.4
20260502111313 51 14 0.0 0.0 0.00 0.00 0.00 99 1017.2
20260502110811 51 14 0.0 0.0 0.00 0.00 0.00 99 1017.4
20260502110309 51 354 1.7 1.7 0.00 0.00 0.00 99 1017.2
20260502105806 51 13 0.9 0.9 0.00 0.00 0.00 99 1017.1
20260502105305 51 359 1.7 1.7 0.00 0.00 0.00 99 1017.2
20260502104800 51 348 0.9 0.9 0.00 0.00 0.00 99 1017.2
20260502104257 51 9 0.9 0.9 0.00 0.00 0.00 99 1017.2
20260502103754 51 8 1.7 1.7 0.00 0.00 0.00 99 1017.0
20260502103252 51 11 0.9 1.7 0.00 0.00 0.00 99 1017.1
20260502102749 51 350 0.9 0.9 0.00 0.00 0.00 99 1017.1
20260502102245 51 17 0.0 0.0 0.00 0.00 0.00 99 1016.8
20260502101744 51 349 0.9 0.9 0.00 0.00 0.00 99 1016.8
20260502101241 51 17 0.0 0.0 0.00 0.00 0.00 99 1016.7
20260502100739 51 10 0.0 0.0 0.00 0.00 0.00 99 1016.8
20260502100238 51 14 0.9 0.9 0.00 0.00 0.00 99 1016.6
20260502091212 51 17 0.0 0.0 0.00 0.00 0.00 99 1016.5
20260502090709 51 0 0.9 0.9 0.00 0.00 0.00 99 1016.3
20260502090206 50 14 0.0 0.0 0.00 0.00 0.00 99 1016.1
20260502071102 52 18 0.0 0.0 0.00 0.00 0.00 99 1015.5
20260502070559 52 18 0.0 0.0 0.00 0.00 0.00 99 1015.6
20260502070057 52 18 0.0 0.0 0.00 0.00 0.00 99 1015.7
20260502065555 52 18 0.0 0.0 0.00 0.00 0.00 99 1015.8
20260502065053 52 18 0.0 0.0 0.00 0.00 0.00 99 1015.7
20260502064551 52 18 0.9 0.9 0.00 0.00 0.00 99 1015.7
20260502064048 52 18 0.0 0.0 0.00 0.00 0.00 99 1015.8
20260502063545 52 36 0.0 0.0 0.00 0.00 0.00 99 1015.9
20260502063043 52 40 0.0 0.0 0.00 0.00 0.00 99 1015.7
20260502062539 52 41 0.0 0.0 0.00 0.00 0.00 99 1015.9
20260502062032 52 32 0.0 0.0 0.00 0.00 0.00 99 1015.8
20260502061530 52 54 0.0 0.9 0.00 0.00 0.00 99 1015.7
20260502061026 53 27 0.0 0.0 0.00 0.00 0.00 99 1016.0
20260502060521 53 33 0.0 0.0 0.00 0.00 0.00 99 1016.1
20260502060018 53 28 0.0 0.0 0.00 0.00 0.00 99 1015.7
20260502055516 53 45 0.9 0.9 0.00 0.00 0.00 99 1016.1
20260502055015 53 40 0.0 0.0 0.00 0.00 0.00 99 1016.0
20260502054513 53 37 0.0 0.0 0.00 0.00 0.00 99 1016.2
20260502054009 53 39 0.0 0.0 0.00 0.00 0.00 99 1016.2
20260502053506 53 20 0.0 0.0 0.00 0.00 0.00 99 1016.3
20260502053004 53 40 0.9 0.9 0.00 0.00 0.00 99 1016.2
20260502052502 53 53 0.9 0.9 0.00 0.00 0.00 99 1016.0
20260502052000 53 30 0.0 0.9 0.00 0.00 0.00 99 1016.5
20260502051458 53 74 3.5 5.2 0.00 0.00 0.00 99 1016.4
20260502050955 53 349 0.0 1.7 0.00 0.00 0.00 99 1016.2
20260502050451 53 1 0.9 1.7 0.00 0.00 0.00 99 1016.4
20260502045949 53 333 0.9 1.7 0.00 2.49 2.49 99 1016.3
20260502045445 53 56 1.7 1.7 0.00 2.49 2.49 99 1016.1
20260502044942 53 31 0.9 0.9 0.00 2.49 2.49 99 1016.3
20260502044438 53 82 3.5 6.1 0.00 2.49 2.49 99 1016.3
20260502043935 53 24 0.9 0.9 0.00 2.49 2.49 99 1016.5
20260502043433 53 53 0.9 0.9 0.00 2.49 2.49 99 1016.4
20260502042932 53 17 5.2 6.1 0.00 2.49 2.49 99 1016.2
20260502042430 53 345 0.9 1.7 0.00 2.49 2.49 99 1016.1
20260502041926 53 13 0.9 0.9 0.00 2.49 2.49 99 1016.1
20260502041425 53 81 1.7 2.6 0.00 2.49 2.49 99 1016.1
20260502040922 53 324 0.9 1.7 0.00 2.49 2.49 99 1016.1
20260502040419 54 300 2.6 3.5 0.00 2.49 2.49 99 1015.9
20260502035915 54 354 5.2 6.1 0.00 2.49 2.49 99 1015.8
20260502035411 54 358 0.9 1.7 0.00 2.49 2.49 99 1015.7
20260502034909 54 8 2.6 3.5 0.00 2.49 2.49 99 1015.3
20260502034408 54 323 0.9 1.7 0.00 2.49 2.49 99 1015.5
20260502033906 54 354 3.5 5.2 0.00 2.49 2.49 99 1015.9
20260502033403 54 1 0.0 0.0 0.00 2.49 2.49 99 1015.4
20260502032859 54 356 6.1 8.7 0.07 2.49 2.49 99 1015.5
20260502032355 53 12 0.0 0.9 0.07 2.49 2.49 99 1015.5
20260502031852 54 36 1.7 1.7 0.00 2.48 2.48 99 1015.1
20260502031351 53 8 2.6 2.6 0.05 2.48 2.48 99 1015.6
20260502030848 53 0 6.1 7.0 0.05 2.48 2.48 99 1015.5
20260502030347 53 2 5.2 7.0 0.05 2.48 2.48 99 1015.5
20260502025844 53 358 3.5 5.2 0.07 2.47 2.47 99 1015.4
20260502025342 53 335 3.5 3.5 0.12 2.47 2.47 99 1015.1
20260502024839 53 333 1.7 2.6 0.19 2.46 2.46 99 1015.0
20260502024336 53 63 1.7 2.6 0.19 2.45 2.45 99 1014.4
20260502023834 53 353 1.7 2.6 0.12 2.43 2.43 99 1014.2
20260502023332 53 44 0.9 0.9 0.12 2.42 2.42 99 1014.7
20260502022829 53 16 0.0 0.0 0.12 2.41 2.41 99 1014.7
20260502022325 53 352 3.5 3.5 0.07 2.40 2.40 99 1014.9
20260502021822 53 354 6.1 7.0 0.05 2.39 2.39 99 1014.9
20260502021320 53 358 3.5 3.5 0.12 2.39 2.39 99 1014.8
20260502020818 53 42 1.7 1.7 0.12 2.38 2.38 99 1014.3
20260502020315 53 318 0.9 0.9 0.05 2.37 2.37 99 1014.0
20260502015812 53 358 0.9 2.6 0.07 2.36 2.36 99 1013.8
20260502015308 53 350 3.5 5.2 0.12 2.36 2.36 99 1013.9
20260502014806 54 348 0.9 1.7 0.05 2.35 2.35 99 1013.6
20260502014303 53 68 1.7 1.7 0.12 2.35 2.35 99 1013.9
20260502013759 54 356 3.5 5.2 0.07 2.34 2.34 99 1014.2
20260502013255 54 343 1.7 2.6 0.00 2.33 2.33 99 1014.0
20260502012751 54 319 1.7 2.6 0.05 2.33 2.33 99 1013.5
20260502012249 54 10 2.6 5.2 0.05 2.33 2.33 99 1013.6
20260502011746 54 5 2.6 3.5 0.14 2.32 2.32 99 1013.3
20260502011242 54 18 0.9 0.9 0.19 2.32 2.32 99 1013.0
20260502010740 54 26 0.0 0.9 0.12 2.31 2.31 99 1012.8
20260502010235 54 15 0.9 0.9 0.17 2.30 2.30 99 1012.7
20260502005733 54 46 0.0 0.0 0.24 2.29 2.29 99 1012.4
20260502005231 54 33 0.0 0.9 0.24 2.27 2.27 99 1012.5
20260502004727 54 16 0.0 0.0 0.24 2.25 2.25 99 1012.9
20260502004223 54 346 1.7 2.6 0.31 2.23 2.23 99 1013.2
20260502003721 54 359 2.6 3.5 0.31 2.21 2.21 99 1013.9
20260502003219 55 7 0.9 0.9 0.24 2.18 2.18 99 1013.5
20260502002714 55 14 0.0 0.9 0.24 2.16 2.16 99 1012.9
20260502002212 55 197 0.0 1.7 0.28 2.15 2.15 99 1013.0
20260502001709 55 347 1.7 1.7 0.24 2.12 2.12 99 1012.9
20260502001207 55 22 0.0 0.0 0.24 2.10 2.10 99 1012.3
20260502000704 55 18 0.0 0.9 0.19 2.08 2.08 99 1012.0
20260502000203 55 23 0.0 0.9 0.14 2.06 2.06 99 1012.5
20260501235658 55 341 0.9 1.7 0.12 2.05 2.05 99 1012.4
20260501235154 55 51 2.6 3.5 0.17 2.04 2.04 99 1012.0
20260501234649 55 68 0.9 1.7 0.19 2.03 2.03 99 1012.3
20260501234147 55 71 0.0 0.9 0.07 2.01 2.01 99 1012.1
20260501233645 55 68 0.9 1.7 0.00 2.00 2.00 99 1012.4
20260501233142 55 203 1.7 1.7 0.05 2.00 2.00 99 1012.1
20260501232638 55 71 0.0 0.9 0.12 2.00 2.00 99 1011.8
20260501232136 56 34 0.9 0.9 0.19 1.99 1.99 99 1012.2
20260501231633 55 10 1.7 1.7 0.12 1.98 1.98 99 1012.2
20260501231132 56 66 1.7 3.5 0.12 1.97 1.97 99 1011.7
20260501230630 56 129 2.6 2.6 0.05 1.96 1.96 99 1012.3
20260501230127 56 13 0.0 0.9 0.07 1.95 1.95 99 1013.2
20260501225625 56 350 2.6 2.6 0.07 1.95 1.95 99 1013.0
20260501225121 56 7 2.6 3.5 0.12 1.94 1.94 99 1012.7
20260501224618 56 328 0.9 1.7 0.19 1.94 1.94 99 1012.7
20260501224115 56 355 0.0 0.0 0.24 1.92 1.92 99 1012.5
20260501223612 56 67 0.9 1.7 0.24 1.91 1.91 99 1012.6
20260501223108 56 359 0.0 0.9 0.17 1.89 1.89 99 1013.1
20260501222604 57 344 1.7 2.6 0.12 1.87 1.87 99 1013.4
20260501222101 57 13 0.0 0.9 0.12 1.86 1.86 99 1013.4
20260501221558 57 53 0.9 0.9 0.12 1.85 1.85 99 1013.2
20260501221055 57 353 0.9 0.9 0.12 1.84 1.84 99 1012.9
20260501220553 57 30 1.7 1.7 0.19 1.83 1.83 99 1012.2
20260501220050 57 229 0.0 0.9 0.26 1.82 1.82 99 1011.6
20260501215546 57 44 0.9 1.7 0.24 1.81 1.81 99 1011.5
20260501215041 57 320 0.0 0.9 0.17 1.78 1.78 99 1011.5
20260501214537 57 31 0.0 0.9 0.12 1.76 1.76 99 1011.9
20260501214033 57 17 0.0 0.9 0.12 1.75 1.75 99 1012.0
20260501213530 57 57 0.9 0.9 0.24 1.74 1.74 99 1011.7
20260501213026 57 39 0.0 0.9 0.24 1.73 1.73 99 1011.7
20260501212522 58 22 0.0 0.0 0.12 1.70 1.70 99 1011.8
20260501212020 57 37 0.0 0.0 0.14 1.69 1.69 99 1012.1
20260501211516 57 343 0.9 0.9 0.07 1.68 1.68 99 1012.4
20260501211015 57 18 0.0 0.9 0.00 1.67 1.67 99 1012.1
20260501210510 57 12 0.0 0.9 0.00 1.67 1.67 99 1011.5
20260501210007 57 353 1.7 2.6 0.05 1.67 1.67 99 1011.0
20260501205504 57 28 0.0 0.9 0.05 1.67 1.67 99 1011.5
20260501205002 57 20 0.0 0.9 0.07 1.66 1.66 99 1011.5
20260501204457 57 14 0.0 0.0 0.12 1.66 1.66 99 1011.4
20260501203954 57 90 0.9 0.9 0.12 1.65 1.65 99 1011.3
20260501203450 57 41 0.9 1.7 0.19 1.64 1.64 99 1010.4
20260501202948 57 33 0.9 0.9 0.28 1.63 1.63 99 1009.8
20260501202444 57 31 0.0 0.0 0.35 1.62 1.62 99 1009.8
20260501201941 57 35 0.0 0.0 0.31 1.59 1.59 99 1010.4
20260501201438 57 67 0.9 1.7 0.31 1.56 1.56 99 1009.9
20260501200935 57 35 0.0 0.9 0.28 1.54 1.54 99 1010.4
20260501200432 57 33 0.9 0.9 0.24 1.52 1.52 99 1010.6
20260501195930 57 343 0.9 1.7 0.28 1.50 1.50 99 1010.5
20260501195426 57 41 0.9 0.9 0.24 1.48 1.48 99 1010.6
20260501194921 57 359 1.7 2.6 0.14 1.45 1.45 99 1010.5
20260501194418 57 17 0.0 0.0 0.00 1.43 1.43 99 1010.4
20260501193914 57 19 0.9 1.7 0.00 1.43 1.43 99 1010.6
20260501193412 58 88 0.0 0.9 0.00 1.43 1.43 99 1010.3
20260501192910 58 89 2.6 3.5 0.00 1.43 1.43 99 1010.2
20260501192407 58 101 0.9 0.9 0.05 1.43 1.43 99 1010.5
20260501191904 58 41 0.9 0.9 0.05 1.43 1.43 99 1010.7
20260501191401 58 65 0.0 0.0 0.00 1.42 1.42 99 1010.2
20260501190858 58 197 1.7 2.6 0.00 1.42 1.42 99 1010.0
20260501190354 58 81 3.5 5.2 0.00 1.42 1.42 99 1010.4
20260501185849 58 34 2.6 5.2 0.00 1.42 1.42 99 1010.4
20260501185345 59 80 1.7 2.6 0.00 1.42 1.42 99 1010.3
20260501184841 59 166 5.2 7.0 0.00 1.42 1.42 99 1010.6
20260501184337 59 5 1.7 1.7 0.00 1.42 1.42 99 1010.6
20260501183832 59 66 4.3 5.2 0.00 1.42 1.42 99 1010.4
20260501183330 59 40 0.0 0.9 0.00 1.42 1.42 99 1010.5
20260501182826 59 13 0.0 0.0 0.00 1.42 1.42 99 1011.2
20260501182324 59 355 2.6 2.6 0.00 1.42 1.42 99 1011.5
20260501181820 59 23 1.7 1.7 0.00 1.42 1.42 99 1011.5
20260501181317 59 19 2.6 3.5 0.00 1.42 1.42 99 1011.2
20260501180815 59 46 1.7 1.7 0.07 1.42 1.42 99 1011.3